619  
ASUS45 KGGW 260515  
RWRGGW  
HOURLY REGIONAL WEATHER ROUNDUP FOR NORTHEAST MONTANA  
NATIONAL WEATHER SERVICE GLASGOW MONTANA  
1100 PM MDT THU APR 25 2019  
 
NOTE: "FAIR" INDICATES FEW OR NO CLOUDS BELOW 12,000 FEET WITH NO  
SIGNIFICANT WEATHER AND/OR S TO VISISBILITY.  
 
NORTHEAST MONTANA  
 
 
CITY SKY/WX TMP DP RH WIND PRES REMARKS
 
GLASGOW MOCLDY 42 12 29 E7 30.14F  
PLENTYWOOD N/A 37 11 34 CALM N/A  
WOLF POINT PTCLDY 32 15 49 CALM 30.18S  
JORDAN N/A 39 27 62 E5 30.14F  
WINNETT N/A 47 30 51 SE5 N/A  
SIDNEY CLEAR 32 15 49 CALM 30.19S  
GLENDIVE PTCLDY 34 22 61 NW6 30.19F  
MALTA N/A 45 19 35 SE7 N/A  
 
FORT PECK REPORTS  
 
 
CITY SKY/WX TMP DP RH WIND PRES REMARKS
 
FORT PECK N/A 42 21 43 SE3 N/A  
THE PINES N/A 41 24 51 SE3 N/A  
 
SOUTHEAST MONTANA  
 
 
CITY SKY/WX TMP DP RH WIND PRES REMARKS
 
BILLINGS PTCLDY 47 34 60 E7 30.10F  
MILES CITY CLOUDY 43 22 43 MISG 30.16F  
BAKER PTCLDY 33 22 63 CALM 30.20F  
LIVINGSTON PTCLDY 41 31 67 E8 30.07F  
 
CENTRAL MONTANA  
 
 
CITY SKY/WX TMP DP RH WIND PRES REMARKS
 
HAVRE CLOUDY 47 23 38 E13 30.07F  
LEWISTOWN MOCLDY 43 27 53 E12 30.06F  
GREAT FALLS CLOUDY 49 32 52 SE12 30.00F  
CUT BANK CLOUDY 44 23 43 SE8 30.02F  
HELENA MOCLDY 48 31 51 W3 29.99F  
BUTTE MOCLDY 42 28 57 SE6 30.05F  
BOZEMAN PTCLDY 42 31 64 VRB5 30.01F  
 
WESTERN MONTANA  
 
 
CITY SKY/WX TMP DP RH WIND PRES REMARKS
 
MISSOULA MOCLDY 47 30 51 CALM 29.98F  
KALISPELL NOT AVBL  
 
NORTH DAKOTA  
 
 
CITY SKY/WX TMP DP RH WIND PRES REMARKS
 
WILLISTON CLEAR 36 13 38 E3 30.17S  
DICKINSON CLEAR 35 11 36 W7 30.16F  
MINOT CLEAR 40 22 48 W9 30.13S  
BISMARCK CLEAR 41 18 39 SW5 30.16S  
 
SOUTHERN SASKATCHEWAN  
 
 
CITY SKY/WX TMP DP RH WIND PRES REMARKS
 
REGINA CLEAR 27 7 43 W3 30.12S  
ESTEVAN CLEAR 32 12 43 NW6 30.13S  
SWIFT CURRENT CLEAR 32 7 34 SE7 30.11F  
 
 
 
CLICK HERE TO GO TO PREVIOUS BULLETINS.

The Nexlab MT Page Main Text Page